Weather History for Richmond Hanover County, VA

Change the Weather History Date:

Friday, August 30, 2013

  Actual Average Record
Temperature  
Mean Temperature 73 °F -  
Max Temperature 86 °F 85 °F 104 °F (1953)
Min Temperature 62 °F 62 °F 44 °F (1982)
Cooling Degree Days 8    
Growing Degree Days 23 (Base 50)    
Moisture  
Dew Point 65 °F    
Average Humidity 91    
Maximum Humidity 100    
Minimum Humidity 55    
Precipitation  
Precipitation 0.00 in - - ()
Sea Level Pressure  
Sea Level Pressure 30.04 in    
Wind  
Wind Speed 0 mph (SSE)    
Max Wind Speed 7 mph    
Max Gust Speed -    
Visibility 4 miles    
Events      
Averages and records for this station are not official NWS values.
T = Trace of Precipitation, MM = Missing Value Source: NWS Daily Summary

Daily Weather History Graph

Daily Weather History Graph

Search for Another Location

Airport:

Trip Planner

Search our weather history database for the weather conditions in past years. The results will help you decide how hot, cold, wet, or windy it might be!

Date:

Astronomy

Aug. 30, 2013 Rise Set
Actual Time 6:38 AM EDT 7:41 PM EDT
Civil Twilight 6:11 AM EDT 8:08 PM EDT
Nautical Twilight 5:39 AM EDT 8:40 PM EDT
Astronomical Twilight 5:06 AM EDT 9:13 PM EDT
Moon 1:18 AM EDT (8/30) 3:52 PM EDT (8/30)
Length of Visible Light 13h 56m
Length of Day
13h 03m
Waning Crescent, 29% of the Moon is Illuminated
Aug 30
Waning Crescent
Sep 5
New
Sep 12
First Quarter
Sep 19
Full
Sep 26
Last Quarter

Hourly Weather History & Observations

Time (EDT) Temp. Heat Index Dew Point Humidity Pressure Visibility Wind Dir Wind Speed Gust Speed Precip Events Conditions
12:11 AM 66.2 °F - 66.2 °F 100% 30.05 in 1.5 mi Calm Calm - N/A   Clear
12:20 AM 68.0 °F - 66.2 °F 94% 30.05 in 2.0 mi Calm Calm - N/A   Clear
12:24 AM 66.2 °F - 66.2 °F 100% 30.05 in 1.2 mi Calm Calm - N/A   Clear
12:33 AM 66.2 °F - 66.2 °F 100% 30.05 in 0.8 mi Calm Calm - N/A   Clear
12:41 AM 66.2 °F - 66.2 °F 100% 30.05 in 0.8 mi Calm Calm - N/A   Mist
12:47 AM 66.2 °F - 66.2 °F 100% 30.05 in 1.5 mi Calm Calm - N/A   Clear
12:54 AM 66.9 °F - 66.0 °F 97% 30.05 in 2.0 mi Calm Calm - N/A   Clear
1:17 AM 66.2 °F - 66.2 °F 100% 30.05 in 1.2 mi Calm Calm - N/A   Clear
1:27 AM 66.2 °F - 66.2 °F 100% 30.05 in 2.0 mi Calm Calm - N/A   Clear
1:41 AM 66.2 °F - 66.2 °F 100% 30.05 in 1.2 mi Calm Calm - N/A   Partly Cloudy
1:54 AM 66.0 °F - 66.0 °F 100% 30.05 in 1.8 mi Calm Calm - N/A   Clear
2:15 AM 66.2 °F - 64.4 °F 94% 30.04 in 0.8 mi Calm Calm - N/A   Clear
2:22 AM 66.2 °F - 64.4 °F 94% 30.04 in 0.8 mi Calm Calm - N/A   Mist
2:32 AM 66.2 °F - 64.4 °F 94% 30.04 in 1.0 mi Calm Calm - N/A   Mist
2:34 AM 66.2 °F - 64.4 °F 94% 30.04 in 1.5 mi Calm Calm - N/A   Partly Cloudy
2:50 AM 64.4 °F - 64.4 °F 100% 30.04 in 1.2 mi Calm Calm - N/A   Partly Cloudy
2:54 AM 64.9 °F - 64.9 °F 100% 30.04 in 2.0 mi Calm Calm - N/A   Partly Cloudy
3:03 AM 64.4 °F - 64.4 °F 100% 30.05 in 3.0 mi Calm Calm - N/A   Clear
3:09 AM 64.4 °F - 64.4 °F 100% 30.05 in 1.8 mi Calm Calm - N/A   Clear
3:16 AM 64.4 °F - 64.4 °F 100% 30.05 in 1.0 mi Calm Calm - N/A   Mist
3:23 AM 64.4 °F - 64.4 °F 100% 30.05 in 1.0 mi Calm Calm - N/A   Mist
3:31 AM 64.4 °F - 64.4 °F 100% 30.04 in 0.8 mi Calm Calm - N/A   Mist
3:36 AM 64.4 °F - 64.4 °F 100% 30.05 in 1.2 mi Calm Calm - N/A   Scattered Clouds
3:47 AM 64.4 °F - 64.4 °F 100% 30.05 in 1.0 mi Calm Calm - N/A   Mist
3:51 AM 64.4 °F - 64.4 °F 100% 30.05 in 1.5 mi Calm Calm - N/A   Clear
3:54 AM 64.9 °F - 64.9 °F 100% 30.04 in 1.5 mi Calm Calm - N/A   Clear
4:01 AM 64.4 °F - 64.4 °F 100% 30.04 in 1.0 mi Calm Calm - N/A   Clear
4:08 AM 64.4 °F - 64.4 °F 100% 30.04 in 0.8 mi Calm Calm - N/A   Clear
4:19 AM 64.4 °F - 64.4 °F 100% 30.05 in 1.5 mi Calm Calm - N/A   Clear
4:27 AM 64.4 °F - 64.4 °F 100% 30.05 in 2.0 mi Calm Calm - N/A   Clear
4:41 AM 64.4 °F - 64.4 °F 100% 30.05 in 1.2 mi Calm Calm - N/A   Clear
4:54 AM 64.0 °F - 64.0 °F 100% 30.05 in 2.0 mi Calm Calm - N/A   Clear
5:26 AM 64.4 °F - 64.4 °F 100% 30.06 in 3.0 mi Calm Calm - N/A   Clear
5:34 AM 64.4 °F - 64.4 °F 100% 30.06 in 2.5 mi Calm Calm - N/A   Partly Cloudy
5:37 AM 64.4 °F - 64.4 °F 100% 30.05 in 1.2 mi Calm Calm - N/A   Scattered Clouds
5:40 AM 64.4 °F - 62.6 °F 94% 30.05 in 0.8 mi Calm Calm - N/A   Mist
5:51 AM 62.6 °F - 62.6 °F 100% 30.06 in 1.0 mi Calm Calm - N/A   Mostly Cloudy
5:54 AM 64.0 °F - 63.0 °F 96% 30.05 in 2.0 mi Calm Calm - N/A   Mostly Cloudy
6:04 AM 64.4 °F - 62.6 °F 94% 30.06 in 2.5 mi Calm Calm - N/A   Overcast
6:13 AM 64.4 °F - 64.4 °F 100% 30.06 in 3.0 mi Calm Calm - N/A   Mostly Cloudy
6:16 AM 64.4 °F - 64.4 °F 100% 30.06 in 1.8 mi Calm Calm - N/A   Mostly Cloudy
6:23 AM 64.4 °F - 62.6 °F 94% 30.06 in 1.0 mi Calm Calm - N/A   Mist
6:30 AM 64.4 °F - 64.4 °F 100% 30.06 in 0.8 mi Calm Calm - N/A   Mist
6:45 AM 64.4 °F - 62.6 °F 94% 30.07 in 1.2 mi Calm Calm - N/A   Clear
6:54 AM 64.0 °F - 63.0 °F 96% 30.06 in 1.8 mi Calm Calm - N/A   Partly Cloudy
7:01 AM 64.4 °F - 62.6 °F 94% 30.07 in 2.0 mi Calm Calm - N/A   Clear
7:36 AM 66.2 °F - 64.4 °F 94% 30.07 in 3.0 mi Calm Calm - N/A   Clear
7:54 AM 66.0 °F - 66.0 °F 100% 30.07 in 3.0 mi Calm Calm - N/A   Clear
8:54 AM 72.0 °F - 68.0 °F 87% 30.07 in 9.0 mi Calm Calm - N/A   Clear
9:54 AM 73.9 °F - 66.9 °F 79% 30.08 in 9.0 mi Calm Calm - N/A   Overcast
10:54 AM 77.0 °F - 66.0 °F 69% 30.08 in 10.0 mi SE 4.6 mph - N/A   Clear
11:54 AM 79.0 °F - 66.9 °F 66% 30.06 in 10.0 mi SE 4.6 mph - N/A   Clear
12:54 PM 81.0 °F 83.3 °F 66.9 °F 62% 30.04 in 10.0 mi South 6.9 mph - N/A   Partly Cloudy
1:54 PM 82.9 °F 85.0 °F 66.0 °F 56% 30.02 in 10.0 mi Variable 5.8 mph - N/A   Partly Cloudy
2:54 PM 84.0 °F 86.3 °F 66.0 °F 55% 29.99 in 10.0 mi Variable 3.5 mph - N/A   Partly Cloudy
3:54 PM 84.0 °F 86.3 °F 66.0 °F 55% 29.97 in 10.0 mi Variable 4.6 mph - N/A   Mostly Cloudy
4:54 PM 84.0 °F 86.3 °F 66.0 °F 55% 29.96 in 10.0 mi WSW 4.6 mph - N/A   Partly Cloudy
5:54 PM 84.0 °F 86.3 °F 66.0 °F 55% 29.96 in 10.0 mi South 6.9 mph - N/A   Scattered Clouds
6:54 PM 80.1 °F 83.2 °F 70.0 °F 71% 29.95 in 10.0 mi Calm Calm - N/A   Clear
7:54 PM 75.0 °F - 69.1 °F 82% 29.95 in 10.0 mi SE 3.5 mph - N/A   Clear
8:54 PM 75.9 °F - 68.0 °F 76% 29.95 in 10.0 mi Variable 3.5 mph - N/A   Clear
9:54 PM 73.9 °F - 68.0 °F 82% 29.95 in 10.0 mi SSE 3.5 mph - N/A   Clear
10:54 PM 73.9 °F - 68.0 °F 82% 29.96 in 10.0 mi Calm Calm - N/A   Clear
11:54 PM 71.1 °F - 68.0 °F 90% 29.96 in 10.0 mi Calm Calm - N/A   Clear